| time (UTC) | temp C | wind direction | speed KPH | gust KPH | rain 1hr cm | rain 24hr cm | rain mn cm | humidity % | barometer mb |
| 20260504231344 | 17 | 216 | 3.2 | 8.0 | 0.00 | 0.00 | 0.00 | 47 | 1009.0 |
| 20260504230844 | 17 | 179 | 8.0 | 12.9 | 0.00 | 0.00 | 0.00 | 47 | 1009.0 |
| 20260504230347 | 17 | 105 | 6.4 | 11.3 | 0.00 | 0.00 | 0.00 | 47 | 1009.0 |
| 20260504225844 | 17 | 250 | 4.8 | 6.4 | 0.00 | 0.00 | 0.00 | 46 | 1009.0 |
| 20260504225343 | 17 | 151 | 6.4 | 11.3 | 0.00 | 0.00 | 0.00 | 46 | 1009.0 |
| 20260504224846 | 17 | 195 | 11.3 | 16.1 | 0.00 | 0.00 | 0.00 | 45 | 1009.0 |
| 20260504224344 | 17 | 141 | 8.0 | 12.9 | 0.00 | 0.00 | 0.00 | 45 | 1009.0 |
| 20260504223843 | 18 | 158 | 8.0 | 14.5 | 0.00 | 0.00 | 0.00 | 44 | 1009.0 |
| 20260504223344 | 18 | 228 | 6.4 | 9.7 | 0.00 | 0.00 | 0.00 | 44 | 1009.0 |
| 20260504222844 | 18 | 167 | 9.7 | 16.1 | 0.00 | 0.00 | 0.00 | 44 | 1009.0 |
| 20260504222343 | 18 | 115 | 3.2 | 8.0 | 0.00 | 0.00 | 0.00 | 43 | 1009.0 |
| 20260504221843 | 18 | 89 | 4.8 | 6.4 | 0.00 | 0.00 | 0.00 | 44 | 1009.0 |
| 20260504221345 | 18 | 97 | 4.8 | 9.7 | 0.00 | 0.00 | 0.00 | 43 | 1009.0 |
| 20260504220846 | 18 | 173 | 4.8 | 8.0 | 0.00 | 0.00 | 0.00 | 43 | 1009.0 |
| 20260504220343 | 18 | 198 | 9.7 | 16.1 | 0.00 | 0.00 | 0.00 | 42 | 1009.0 |
| 20260504215844 | 18 | 102 | 6.4 | 9.7 | 0.00 | 0.00 | 0.00 | 42 | 1009.0 |
| 20260504215345 | 19 | 197 | 6.4 | 11.3 | 0.00 | 0.00 | 0.00 | 40 | 1009.0 |
| 20260504214844 | 19 | 166 | 8.0 | 17.7 | 0.00 | 0.00 | 0.00 | 41 | 1009.0 |
| 20260504214343 | 19 | 196 | 6.4 | 11.3 | 0.00 | 0.00 | 0.00 | 41 | 1009.0 |
| 20260504213844 | 19 | 191 | 12.9 | 19.3 | 0.00 | 0.00 | 0.00 | 40 | 1009.0 |
| 20260504213345 | 19 | 216 | 8.0 | 11.3 | 0.00 | 0.00 | 0.00 | 40 | 1009.0 |
| 20260504212844 | 19 | 126 | 6.4 | 14.5 | 0.00 | 0.00 | 0.00 | 40 | 1009.0 |
| 20260504212345 | 19 | 126 | 11.3 | 16.1 | 0.00 | 0.00 | 0.00 | 40 | 1008.0 |
| 20260504211845 | 19 | 150 | 9.7 | 14.5 | 0.00 | 0.00 | 0.00 | 39 | 1008.0 |
| 20260504211347 | 19 | 162 | 4.8 | 8.0 | 0.00 | 0.00 | 0.00 | 39 | 1008.0 |
| 20260504210846 | 20 | 133 | 6.4 | 8.0 | 0.00 | 0.00 | 0.00 | 39 | 1008.0 |
| 20260504210345 | 20 | 197 | 8.0 | 11.3 | 0.00 | 0.00 | 0.00 | 39 | 1008.0 |
| 20260504205843 | 20 | 91 | 4.8 | 6.4 | 0.00 | 0.00 | 0.00 | 38 | 1008.0 |
| 20260504205344 | 20 | 133 | 8.0 | 17.7 | 0.00 | 0.00 | 0.00 | 38 | 1008.0 |
| 20260504204843 | 20 | 206 | 9.7 | 20.9 | 0.00 | 0.00 | 0.00 | 36 | 1008.0 |
| 20260504204345 | 20 | 211 | 16.1 | 24.1 | 0.00 | 0.00 | 0.00 | 37 | 1008.0 |
| 20260504203843 | 20 | 185 | 9.7 | 14.5 | 0.00 | 0.00 | 0.00 | 36 | 1008.0 |
| 20260504203344 | 20 | 205 | 9.7 | 16.1 | 0.00 | 0.00 | 0.00 | 35 | 1008.0 |
| 20260504202843 | 20 | 140 | 3.2 | 6.4 | 0.00 | 0.00 | 0.00 | 35 | 1008.0 |
| 20260504202347 | 20 | 184 | 6.4 | 11.3 | 0.00 | 0.00 | 0.00 | 34 | 1008.0 |
| 20260504201844 | 20 | 183 | 11.3 | 16.1 | 0.00 | 0.00 | 0.00 | 33 | 1008.0 |
| 20260504201344 | 20 | 163 | 6.4 | 12.9 | 0.00 | 0.00 | 0.00 | 33 | 1008.0 |
| 20260504200844 | 20 | 159 | 9.7 | 17.7 | 0.00 | 0.00 | 0.00 | 32 | 1008.0 |
| 20260504200345 | 20 | 211 | 9.7 | 14.5 | 0.00 | 0.00 | 0.00 | 34 | 1008.0 |
| 20260504195844 | 20 | 191 | 4.8 | 9.7 | 0.00 | 0.00 | 0.00 | 33 | 1008.0 |
| 20260504195344 | 20 | 210 | 9.7 | 22.5 | 0.00 | 0.00 | 0.00 | 34 | 1008.0 |
| 20260504194845 | 20 | 222 | 11.3 | 14.5 | 0.00 | 0.00 | 0.00 | 33 | 1008.0 |
| 20260504194346 | 20 | 166 | 8.0 | 14.5 | 0.00 | 0.00 | 0.00 | 33 | 1008.0 |
| 20260504193843 | 20 | 202 | 6.4 | 11.3 | 0.00 | 0.00 | 0.00 | 33 | 1008.0 |
| 20260504193346 | 20 | 152 | 9.7 | 20.9 | 0.00 | 0.00 | 0.00 | 33 | 1008.0 |
| 20260504192845 | 20 | 96 | 3.2 | 4.8 | 0.00 | 0.00 | 0.00 | 32 | 1008.0 |
| 20260504192345 | 20 | 202 | 11.3 | 17.7 | 0.00 | 0.00 | 0.00 | 31 | 1008.0 |
| 20260504191846 | 20 | 285 | 6.4 | 12.9 | 0.00 | 0.00 | 0.00 | 33 | 1008.0 |
| 20260504191344 | 20 | 224 | 11.3 | 16.1 | 0.00 | 0.00 | 0.00 | 32 | 1008.0 |
| 20260504190843 | 20 | 190 | 9.7 | 17.7 | 0.00 | 0.00 | 0.00 | 32 | 1008.0 |
| 20260504190343 | 20 | 158 | 9.7 | 14.5 | 0.00 | 0.00 | 0.00 | 32 | 1008.0 |
| 20260504185843 | 20 | 129 | 8.0 | 11.3 | 0.00 | 0.00 | 0.00 | 31 | 1008.0 |
| 20260504185347 | 20 | 169 | 4.8 | 8.0 | 0.00 | 0.00 | 0.00 | 34 | 1008.0 |
| 20260504184844 | 20 | 226 | 9.7 | 16.1 | 0.00 | 0.00 | 0.00 | 32 | 1009.0 |
| 20260504184347 | 20 | 250 | 12.9 | 17.7 | 0.00 | 0.00 | 0.00 | 32 | 1008.0 |
| 20260504183845 | 20 | 191 | 9.7 | 30.6 | 0.00 | 0.00 | 0.00 | 32 | 1008.0 |
| 20260504183345 | 20 | 257 | 6.4 | 11.3 | 0.00 | 0.00 | 0.00 | 31 | 1009.0 |
| 20260504182844 | 20 | 214 | 8.0 | 14.5 | 0.00 | 0.00 | 0.00 | 32 | 1009.0 |
| 20260504182346 | 20 | 210 | 11.3 | 19.3 | 0.00 | 0.00 | 0.00 | 32 | 1009.0 |
| 20260504181847 | 20 | 182 | 9.7 | 16.1 | 0.00 | 0.00 | 0.00 | 31 | 1009.0 |
| 20260504181346 | 20 | 191 | 17.7 | 20.9 | 0.00 | 0.00 | 0.00 | 31 | 1009.0 |
| 20260504180847 | 20 | 141 | 6.4 | 9.7 | 0.00 | 0.00 | 0.00 | 31 | 1009.0 |
| 20260504180346 | 20 | 200 | 9.7 | 14.5 | 0.00 | 0.00 | 0.00 | 31 | 1009.0 |
| 20260504175846 | 19 | 218 | 6.4 | 11.3 | 0.00 | 0.00 | 0.00 | 35 | 1009.0 |
| 20260504175348 | 19 | 227 | 14.5 | 24.1 | 0.00 | 0.00 | 0.00 | 32 | 1009.0 |
| 20260504174845 | 19 | 201 | 3.2 | 6.4 | 0.00 | 0.00 | 0.00 | 32 | 1009.0 |
| 20260504174351 | 19 | 225 | 9.7 | 17.7 | 0.00 | 0.00 | 0.00 | 31 | 1009.0 |
| 20260504173845 | 19 | 213 | 4.8 | 8.0 | 0.00 | 0.00 | 0.00 | 33 | 1009.0 |
| 20260504173347 | 18 | 238 | 14.5 | 22.5 | 0.00 | 0.00 | 0.00 | 33 | 1009.0 |
| 20260504172846 | 18 | 231 | 9.7 | 12.9 | 0.00 | 0.00 | 0.00 | 31 | 1009.0 |
| 20260504172343 | 19 | 153 | 11.3 | 19.3 | 0.00 | 0.00 | 0.00 | 31 | 1009.0 |
| 20260504171847 | 18 | 177 | 8.0 | 12.9 | 0.00 | 0.00 | 0.00 | 32 | 1009.0 |
| 20260504171346 | 18 | 205 | 9.7 | 14.5 | 0.00 | 0.00 | 0.00 | 32 | 1009.0 |
| 20260504170848 | 18 | 194 | 8.0 | 14.5 | 0.00 | 0.00 | 0.00 | 31 | 1009.0 |
| 20260504170344 | 18 | 239 | 12.9 | 17.7 | 0.00 | 0.00 | 0.00 | 31 | 1009.0 |
| 20260504160346 | 18 | 229 | 6.4 | 19.3 | 0.00 | 0.00 | 0.00 | 34 | 1010.0 |
| 20260504150846 | 17 | 202 | 12.9 | 20.9 | 0.00 | 0.00 | 0.00 | 35 | 1010.0 |
| 20260504150346 | 17 | 246 | 6.4 | 9.7 | 0.00 | 0.00 | 0.00 | 36 | 1010.0 |
| 20260504140845 | 16 | 198 | 14.5 | 20.9 | 0.00 | 0.00 | 0.00 | 38 | 1011.0 |
| 20260504140345 | 16 | 199 | 4.8 | 8.0 | 0.00 | 0.00 | 0.00 | 39 | 1011.0 |
| 20260504130350 | 13 | 253 | 4.8 | 8.0 | 0.00 | 0.00 | 0.00 | 45 | 1011.0 |
| 20260504110345 | 3 | 248 | 3.2 | 3.2 | 0.00 | 0.00 | 0.00 | 77 | 1012.0 |
| 20260504100346 | 1 | 0 | 0.0 | 0.0 | 0.00 | 0.00 | 0.00 | 86 | 1012.0 |
| 20260504081845 | 2 | 0 | 0.0 | 0.0 | 0.00 | 0.00 | 0.00 | 82 | 1011.0 |
| 20260504081346 | 2 | 243 | 1.6 | 1.6 | 0.00 | 0.00 | 0.00 | 81 | 1011.0 |
| 20260504080846 | 2 | 250 | 1.6 | 3.2 | 0.00 | 0.00 | 0.00 | 80 | 1011.0 |
| 20260504080344 | 3 | 0 | 0.0 | 0.0 | 0.00 | 0.00 | 0.00 | 78 | 1011.0 |
| 20260504070344 | 2 | 0 | 0.0 | 0.0 | 0.00 | 0.00 | 0.00 | 81 | 1011.0 |
| 20260504050345 | 1 | 297 | 1.6 | 3.2 | 0.00 | 0.00 | 0.00 | 85 | 1011.0 |
| 20260504045844 | 1 | 273 | 1.6 | 1.6 | 0.00 | 0.00 | 0.00 | 85 | 1011.0 |
| 20260504045343 | 1 | 0 | 0.0 | 0.0 | 0.00 | 0.00 | 0.00 | 85 | 1011.0 |
| 20260504044843 | 1 | 0 | 0.0 | 0.0 | 0.00 | 0.00 | 0.00 | 85 | 1011.0 |
| 20260504044343 | 1 | 286 | 1.6 | 3.2 | 0.00 | 0.00 | 0.00 | 83 | 1011.0 |
| 20260504043844 | 1 | 0 | 0.0 | 0.0 | 0.00 | 0.00 | 0.00 | 83 | 1011.0 |
| 20260504043344 | 1 | 0 | 0.0 | 0.0 | 0.00 | 0.00 | 0.00 | 83 | 1011.0 |
| 20260504042845 | 1 | 0 | 0.0 | 0.0 | 0.00 | 0.00 | 0.00 | 85 | 1011.0 |
| 20260504042343 | 1 | 0 | 0.0 | 0.0 | 0.00 | 0.00 | 0.00 | 86 | 1011.0 |
| 20260504041846 | 1 | 256 | 0.0 | 1.6 | 0.00 | 0.00 | 0.00 | 85 | 1011.0 |
| 20260504041345 | 1 | 265 | 1.6 | 1.6 | 0.00 | 0.00 | 0.00 | 85 | 1011.0 |
| 20260504040843 | 1 | 239 | 0.0 | 0.0 | 0.00 | 0.00 | 0.00 | 83 | 1011.0 |
| 20260504040345 | 1 | 285 | 3.2 | 3.2 | 0.00 | 0.00 | 0.00 | 84 | 1011.0 |
| 20260504035843 | 1 | 247 | 0.0 | 1.6 | 0.00 | 0.00 | 0.00 | 83 | 1011.0 |
| 20260504035343 | 1 | 0 | 0.0 | 0.0 | 0.00 | 0.00 | 0.00 | 83 | 1011.0 |
| 20260504034844 | 1 | 249 | 3.2 | 3.2 | 0.00 | 0.00 | 0.00 | 83 | 1011.0 |
| 20260504034344 | 1 | 248 | 0.0 | 0.0 | 0.00 | 0.00 | 0.00 | 83 | 1011.0 |
| 20260504033844 | 1 | 254 | 1.6 | 3.2 | 0.00 | 0.00 | 0.00 | 82 | 1011.0 |
| 20260504033344 | 1 | 253 | 0.0 | 1.6 | 0.00 | 0.00 | 0.00 | 83 | 1011.0 |
| 20260504032844 | 1 | 264 | 0.0 | 0.0 | 0.00 | 0.00 | 0.00 | 82 | 1011.0 |
| 20260504032344 | 1 | 248 | 0.0 | 0.0 | 0.00 | 0.00 | 0.00 | 81 | 1011.0 |
| 20260504031843 | 1 | 0 | 0.0 | 0.0 | 0.00 | 0.00 | 0.00 | 81 | 1011.0 |
| 20260504031343 | 1 | 273 | 1.6 | 3.2 | 0.00 | 0.00 | 0.00 | 81 | 1011.0 |
| 20260504030844 | 1 | 352 | 0.0 | 0.0 | 0.00 | 0.00 | 0.00 | 80 | 1011.0 |
| 20260504030344 | 2 | 13 | 0.0 | 1.6 | 0.00 | 0.00 | 0.00 | 80 | 1011.0 |
| 20260504025844 | 2 | 333 | 0.0 | 0.0 | 0.00 | 0.00 | 0.00 | 79 | 1011.0 |
| 20260504025343 | 2 | 296 | 1.6 | 3.2 | 0.00 | 0.00 | 0.00 | 78 | 1011.0 |
| 20260504024843 | 2 | 247 | 0.0 | 1.6 | 0.00 | 0.00 | 0.00 | 78 | 1011.0 |
| 20260504024344 | 2 | 256 | 0.0 | 1.6 | 0.00 | 0.00 | 0.00 | 78 | 1011.0 |
| 20260504023844 | 2 | 246 | 0.0 | 1.6 | 0.00 | 0.00 | 0.00 | 79 | 1011.0 |
| 20260504023344 | 2 | 262 | 1.6 | 3.2 | 0.00 | 0.00 | 0.00 | 78 | 1011.0 |
| 20260504022843 | 2 | 251 | 0.0 | 1.6 | 0.00 | 0.00 | 0.00 | 79 | 1011.0 |
| 20260504022343 | 2 | 274 | 1.6 | 1.6 | 0.00 | 0.00 | 0.00 | 79 | 1011.0 |
| 20260504021843 | 2 | 316 | 0.0 | 1.6 | 0.00 | 0.00 | 0.00 | 78 | 1011.0 |
| 20260504021343 | 2 | 300 | 0.0 | 1.6 | 0.00 | 0.00 | 0.00 | 77 | 1011.0 |
| 20260504020843 | 2 | 0 | 0.0 | 0.0 | 0.00 | 0.00 | 0.00 | 76 | 1011.0 |
| 20260504020343 | 3 | 242 | 0.0 | 1.6 | 0.00 | 0.00 | 0.00 | 75 | 1011.0 |
| 20260504015843 | 3 | 0 | 0.0 | 0.0 | 0.00 | 0.00 | 0.00 | 74 | 1011.0 |
| 20260504015343 | 3 | 0 | 0.0 | 0.0 | 0.00 | 0.00 | 0.00 | 74 | 1010.0 |
| 20260504014845 | 3 | 0 | 0.0 | 0.0 | 0.00 | 0.00 | 0.00 | 75 | 1010.0 |
| 20260504014343 | 3 | 0 | 0.0 | 0.0 | 0.00 | 0.00 | 0.00 | 76 | 1010.0 |
| 20260504013844 | 3 | 0 | 0.0 | 0.0 | 0.00 | 0.00 | 0.00 | 76 | 1010.0 |
| 20260504013344 | 3 | 271 | 0.0 | 1.6 | 0.00 | 0.00 | 0.00 | 76 | 1010.0 |
| 20260504012851 | 3 | 284 | 3.2 | 3.2 | 0.00 | 0.00 | 0.00 | 75 | 1010.0 |
| 20260504012343 | 4 | 275 | 0.0 | 1.6 | 0.00 | 0.00 | 0.00 | 75 | 1010.0 |
| 20260504011844 | 4 | 0 | 0.0 | 0.0 | 0.00 | 0.00 | 0.00 | 73 | 1010.0 |
| 20260504011343 | 4 | 323 | 0.0 | 1.6 | 0.00 | 0.00 | 0.00 | 72 | 1010.0 |
| 20260504010843 | 5 | 0 | 0.0 | 0.0 | 0.00 | 0.00 | 0.00 | 69 | 1010.0 |
| 20260504010343 | 5 | 242 | 0.0 | 1.6 | 0.00 | 0.00 | 0.00 | 73 | 1010.0 |
| 20260504005844 | 5 | 244 | 0.0 | 1.6 | 0.00 | 0.00 | 0.00 | 73 | 1010.0 |
| 20260504005343 | 5 | 240 | 1.6 | 3.2 | 0.00 | 0.00 | 0.00 | 69 | 1010.0 |
| 20260504004844 | 5 | 251 | 3.2 | 3.2 | 0.00 | 0.00 | 0.00 | 69 | 1010.0 |
| 20260504004344 | 6 | 267 | 1.6 | 3.2 | 0.00 | 0.00 | 0.00 | 65 | 1010.0 |
| 20260504003843 | 6 | 254 | 1.6 | 1.6 | 0.00 | 0.00 | 0.00 | 61 | 1010.0 |
| 20260504003343 | 6 | 254 | 0.0 | 1.6 | 0.00 | 0.00 | 0.00 | 55 | 1010.0 |
| 20260504002844 | 6 | 271 | 0.0 | 1.6 | 0.00 | 0.00 | 0.00 | 56 | 1010.0 |
| 20260504002343 | 6 | 279 | 1.6 | 3.2 | 0.00 | 0.00 | 0.00 | 55 | 1009.0 |
| 20260504001843 | 7 | 275 | 1.6 | 3.2 | 0.00 | 0.00 | 0.00 | 55 | 1009.0 |
| 20260504001343 | 7 | 267 | 1.6 | 3.2 | 0.00 | 0.00 | 0.00 | 53 | 1009.0 |
| 20260504000843 | 7 | 263 | 1.6 | 3.2 | 0.00 | 0.00 | 0.00 | 53 | 1009.0 |
| 20260504000343 | 8 | 253 | 3.2 | 3.2 | 0.00 | 0.00 | 0.00 | 50 | 1009.0 |
| 20260503235843 | 8 | 266 | 1.6 | 3.2 | 0.00 | 0.00 | 0.00 | 49 | 1009.0 |
| 20260503235344 | 9 | 282 | 3.2 | 3.2 | 0.00 | 0.00 | 0.00 | 49 | 1009.0 |
| 20260503234843 | 10 | 271 | 0.0 | 3.2 | 0.00 | 0.00 | 0.00 | 47 | 1009.0 |
| 20260503234343 | 10 | 291 | 0.0 | 0.0 | 0.00 | 0.00 | 0.00 | 42 | 1009.0 |
| 20260503233843 | 10 | 268 | 3.2 | 6.4 | 0.00 | 0.00 | 0.00 | 40 | 1009.0 |
| 20260503233343 | 10 | 280 | 1.6 | 4.8 | 0.00 | 0.00 | 0.00 | 40 | 1009.0 |
| 20260503232843 | 10 | 299 | 1.6 | 4.8 | 0.00 | 0.00 | 0.00 | 40 | 1009.0 |
| 20260503232344 | 10 | 306 | 3.2 | 3.2 | 0.00 | 0.00 | 0.00 | 40 | 1009.0 |
| 20260503231843 | 10 | 264 | 3.2 | 9.7 | 0.00 | 0.00 | 0.00 | 39 | 1009.0 |